SCP
0 0 0 0 0 0 0 0 0 0 0 1 1 1 1 1 1 1 1 1 2 2 2 1 1 1 1 1 1 1 1 2 2 2 1 1 1 1 1 1 1 1 1 0 0 0 0 0 0
0 0 0 0 0 0 0 0 0 0 1 1 1 1 1 1 1 1 1 2 2 2 2 2 2 1 1 1 2 2 1 1 2 2 1 1 1 1 1 1 1 1 1 0 0 0 0 0 0
0 0 0 0 0 0 0 0 0 1 1 1 1 1 2 2 2 2 2 2 3 3 3 3 3 2 2 2 2 2 2 1 1 2 2 1 1 1 1 1 1 1 1 1 1 1 1 1 0
0 0 0 0 0 0 0 0 1 1 1 1 1 1 2 2 2 2 2 3 4 4 4 4 4 3 2 2 2 2 2 1 1 2 1 1 1 1 1 1 1 1 1 1 1 1 1 1 1
0 0 0 0 0 0 1 1 1 1 1 1 2 2 2 2 2 2 3 4 5 6 5 5 5 4 3 3 3 2 2 2 2 2 2 1 1 1 1 1 1 1 1 1 1 1 1 1 1
0 0 0 0 0 0 1 1 1 1 1 2 2 2 2 2 2 3 3 4 6 7 7 6 6 5 4 4 3 2 2 2 2 2 2 2 2 1 1 2 1 1 1 1 1 1 1 1 1
0 0 0 0 0 0 1 1 1 2 2 2 2 2 2 2 3 3 3 4 5 6 7 6 6 5 4 4 3 3 2 2 2 2 1 2 1 1 1 1 1 1 1 1 1 1 1 1 1
0 0 0 0 0 0 1 1 1 2 2 2 2 2 2 3 3 3 4 4 5 5 5 6 6 5 4 4 4 3 2 2 2 1 1 1 1 1 1 1 1 1 1 1 1 1 1 1 1
0 0 0 0 0 0 1 1 1 2 2 2 2 2 3 3 3 3 4 4 5 5 5 5 6 5 4 4 3 3 3 2 2 2 1 1 1 1 1 1 1 1 1 1 1 1 1 1 1
0 0 0 0 0 1 1 1 1 1 1 2 2 2 3 3 3 3 3 4 5 6 6 5 5 5 5 4 3 3 3 3 2 2 2 1 1 1 1 1 1 1 1 1 1 1 1 1 1
0 0 0 0 1 1 1 1 1 1 1 1 2 3 3 3 3 3 4 4 4 5 5 5 5 5 5 4 3 3 3 3 2 2 2 2 1 1 1 1 1 1 1 1 1 1 1 1 1
0 0 0 0 1 1 1 1 2 2 2 2 2 3 3 3 3 4 4 4 4 4 4 5 5 5 4 4 4 3 3 3 3 2 2 2 1 1 1 1 1 1 1 1 1 1 1 1 1
0 0 0 1 1 1 1 2 2 2 2 3 3 3 4 3 3 4 4 3 3 3 4 4 5 4 3 3 4 4 3 3 3 2 2 2 1 1 1 1 1 1 1 1 1 1 1 1 1
0 0 0 1 1 1 1 2 2 2 3 4 4 4 4 3 3 4 3 3 3 3 3 4 4 3 3 3 3 3 3 3 2 2 2 2 1 1 1 1 1 1 1 1 1 2 2 2 1
0 0 1 1 1 1 1 2 2 2 3 4 4 4 3 3 3 3 2 2 2 2 2 3 3 3 2 2 3 3 3 3 2 2 1 1 1 1 2 1 1 1 1 1 2 2 2 2 2
0 0 1 1 1 1 1 1 1 2 3 3 3 3 3 3 3 2 2 2 2 2 2 2 2 2 2 2 2 2 2 2 2 1 1 1 1 1 1 1 1 1 1 1 2 2 2 2 2
0 0 0 0 0 1 1 1 1 2 2 3 3 3 3 3 2 2 2 2 2 2 2 2 2 2 2 2 2 2 1 1 1 1 1 1 1 1 1 1 1 1 1 1 1 2 2 2 2
0 0 0 0 0 1 1 2 2 2 2 3 3 3 3 2 2 1 1 1 1 1 2 2 2 2 2 2 2 2 1 1 1 1 1 1 1 1 1 1 1 1 1 1 1 1 1 1 2
0 0 0 0 1 1 2 2 2 2 2 2 3 3 2 2 1 1 1 1 1 1 1 1 2 2 2 2 2 2 1 1 1 1 1 1 1 1 1 1 1 1 1 1 1 1 1 1 1
0 0 0 1 1 1 2 2 2 2 1 2 2 2 1 1 1 1 1 1 1 1 1 1 1 1 1 1 1 1 1 1 1 1 1 1 1 1 1 1 1 1 1 1 1 1 1 1 1
0 0 0 1 1 1 2 2 2 1 2 2 2 1 1 1 1 1 1 1 1 1 1 1 1 1 1 1 1 1 1 1 1 1 0 1 1 1 1 1 1 1 1 1 1 1 1 1 1
0 0 0 0 0 1 1 1 1 1 1 1 1 1 1 2 1 1 1 1 1 0 1 1 1 0 0 1 1 1 1 1 0 0 0 0 0 1 1 1 1 1 1 1 1 1 1 1 1
0 0 0 0 0 0 1 1 1 1 1 1 1 2 2 2 2 1 1 1 1 1 1 1 1 0 0 0 0 0 0 0 0 0 0 0 0 0 0 1 1 1 1 1 1 1 1 1 1
0 0 0 0 0 0 0 1 1 1 1 1 1 2 2 2 1 1 1 1 1 1 1 1 0 0 0 0 0 0 0 0 0 0 0 0 0 0 0 0 0 1 1 1 0 0 0 1 1
0 0 0 0 0 0 0 0 1 1 1 1 1 2 3 2 1 1 0 0 1 1 1 0 0 0 0 0 0 0 0 0 0 0 0 0 0 0 0 0 0 0 1 1 0 0 0 0 0
0 0 0 0 0 0 0 0 0 1 1 1 1 2 2 1 1 0 0 0 0 0 0 0 0 0 0 0 0 0 0 0 0 0 0 0 0 0 0 0 0 0 0 1 0 0 0 0 0
0 0 0 0 0 0 0 0 0 1 1 1 1 1 1 1 1 0 0 0 0 0 0 0 0 0 0 0 0 0 0 0 0 0 0 0 0 0 0 0 0 0 0 0 0 0 0 0 0
0 0 0 0 0 0 0 0 0 1 1 1 1 1 1 1 1 0 0 0 0 0 0 0 0 0 0 0 0 0 0 0 0 0 0 0 0 0 0 0 0 0 0 0 0 0 0 0 0
0 0 0 0 0 0 0 0 0 0 1 1 1 1 1 1 0 0 0 0 0 0 0 0 0 0 0 0 0 0 0 0 0 0 0 0 0 0 0 0 0 0 0 0 0 0 0 0 0
0 0 0 0 0 0 0 0 0 0 1 1 1 1 0 0 0 0 0 0 0 0 0 0 0 0 0 0 0 0 0 0 0 0 0 0 0 0 0 0 0 0 0 0 0 0 0 0 0
Wind_Speed
4 2 2 4 6 5 2 5 3 4 3 2 3 5 6 4 3 2 2 10 15 14 12 15 17 18 18 19 19 18 19 18 18 18 17 16 16 15 14 14 13 12 12 12 12 12 12 12 12
1 1 4 6 6 1 5 4 3 3 3 2 5 5 6 5 4 5 4 10 15 14 11 12 17 18 19 19 19 18 18 18 18 17 17 16 15 14 13 13 12 12 11 11 11 11 11 11 12
1 3 5 6 4 4 4 3 3 3 3 2 4 5 5 3 3 3 6 13 14 12 10 13 18 17 18 18 18 18 18 17 17 16 15 15 14 13 12 12 12 11 11 11 11 11 11 11 10
3 5 6 5 1 4 4 5 4 4 4 4 5 6 5 6 2 6 12 14 14 11 9 12 16 17 17 17 18 17 17 16 16 15 14 13 13 12 11 11 11 11 10 10 10 10 10 9 9
5 5 5 3 3 4 4 5 3 1 1 3 5 6 4 6 9 13 13 13 13 11 8 10 14 16 16 16 16 16 16 15 14 14 13 12 11 11 10 10 10 10 9 9 9 9 9 8 8
5 5 5 0 4 5 4 3 2 1 2 3 5 6 4 4 9 11 12 12 12 11 9 9 14 15 15 15 15 14 14 13 12 12 11 11 10 10 9 9 9 8 8 8 8 8 7 7 6
5 5 4 2 3 4 3 4 3 1 3 2 3 7 5 5 7 9 10 11 9 9 9 7 7 9 13 14 13 13 12 12 11 10 10 10 10 9 9 8 8 7 7 7 7 7 6 6 5
5 5 3 0 1 3 4 5 3 3 3 3 3 7 6 6 8 10 10 10 9 8 6 6 6 5 5 7 11 12 12 11 11 10 10 10 9 9 8 7 6 7 7 6 6 6 5 4 4
4 6 1 2 2 3 3 4 3 3 4 5 5 4 9 14 11 11 10 8 7 7 5 5 4 5 5 5 7 8 10 10 9 8 9 7 3 3 4 5 6 6 6 6 5 5 4 3 2
5 4 4 4 3 2 3 1 0 3 5 5 7 9 13 12 11 11 10 9 7 6 5 4 4 4 4 4 4 3 3 4 4 3 4 3 3 2 3 4 6 6 6 6 5 4 3 2 1
4 5 4 3 3 1 1 2 2 4 3 4 9 14 13 11 10 9 9 8 6 5 5 4 3 4 4 2 3 2 2 2 2 3 3 3 2 1 1 1 2 2 3 2 2 1 1 1 1
2 4 3 3 1 0 0 1 4 3 1 6 11 13 12 11 9 8 8 7 6 5 4 3 3 3 3 3 3 3 2 2 2 2 2 2 2 1 1 1 1 1 1 1 1 1 1 2 2
2 3 2 2 1 1 4 4 4 5 6 10 11 10 9 9 7 6 5 6 6 5 5 3 3 3 2 3 2 3 2 2 2 2 2 2 2 2 2 1 1 2 1 2 2 2 2 2 2
2 2 2 2 1 1 6 4 5 4 7 11 10 8 7 7 7 6 5 5 4 4 4 3 3 3 3 2 2 2 2 2 2 1 1 2 2 2 2 2 2 2 2 2 2 3 2 2 1
0 1 4 2 1 2 6 6 3 6 8 10 9 8 7 5 5 5 4 4 3 4 4 3 2 2 3 3 2 2 1 1 1 1 1 2 2 2 2 2 2 2 2 2 2 2 1 1 1
3 4 2 4 1 2 6 3 3 7 9 9 8 7 7 5 4 4 4 4 4 4 4 4 3 3 3 3 2 2 1 1 1 1 0 1 2 2 2 2 2 2 1 2 2 2 1 2 2
5 3 1 3 2 2 4 4 4 6 8 8 7 7 7 5 4 3 3 4 4 4 4 3 4 4 3 2 2 2 2 2 1 0 0 1 1 2 2 2 2 2 2 2 2 2 2 2 2
1 1 1 2 2 3 4 3 5 6 7 7 6 6 6 5 3 3 3 4 4 5 5 4 4 4 2 2 2 2 2 2 1 1 0 1 1 1 1 1 2 2 2 2 2 3 2 2 2
3 1 1 3 2 3 4 4 5 6 6 5 5 5 5 4 4 4 4 4 5 5 6 6 5 5 4 3 2 1 1 1 2 2 2 1 1 1 1 1 1 2 2 3 3 2 3 2 2
3 1 2 2 2 4 5 4 3 4 5 6 6 6 6 4 4 4 4 5 6 5 5 5 5 5 4 2 1 1 1 1 1 2 3 3 2 2 1 1 1 1 2 2 3 3 2 2 3
2 4 4 2 4 5 6 4 1 1 2 3 4 4 5 5 5 4 5 5 5 6 5 4 5 5 5 4 2 2 2 2 2 2 3 3 3 2 1 1 0 1 1 2 2 3 4 3 3
3 4 5 4 4 1 2 3 2 2 2 4 5 5 5 5 5 5 5 4 5 5 5 5 5 5 5 5 4 3 1 1 2 2 2 3 3 3 3 2 1 1 1 1 2 2 2 3 3
4 1 3 3 5 3 4 4 3 2 4 6 7 7 6 6 6 5 5 5 6 5 5 5 5 6 5 4 4 3 2 1 1 2 2 3 3 4 4 3 2 2 1 1 1 1 2 2 3
4 6 6 6 5 3 1 3 3 4 7 6 7 8 8 7 7 7 6 7 6 5 5 5 6 6 5 5 5 4 3 2 3 3 3 3 3 3 5 4 3 3 2 2 1 1 2 2 3
4 6 4 5 4 2 1 2 5 4 3 5 8 8 8 8 7 7 6 6 5 5 5 5 5 5 5 5 5 4 3 3 3 3 3 3 3 3 4 4 3 3 3 2 2 1 1 2 3
2 7 7 4 4 2 1 2 4 2 1 3 6 8 8 8 7 6 5 5 5 4 4 4 4 4 5 5 5 4 4 2 2 3 3 3 2 3 4 3 3 4 3 3 2 2 2 1 2
5 3 4 7 3 1 2 3 3 1 2 4 7 8 8 8 7 6 5 5 4 4 4 3 4 4 4 5 5 5 5 4 3 3 3 2 3 3 4 4 4 4 4 3 2 2 2 2 2
4 7 5 6 5 1 2 3 4 5 5 6 8 8 8 8 7 6 5 4 3 3 3 4 4 4 4 4 4 4 4 4 4 3 4 4 4 4 4 4 4 4 4 3 3 2 2 2 2
3 4 5 5 5 6 2 5 4 7 7 8 8 8 9 9 8 6 5 4 3 3 4 4 4 4 4 5 4 4 4 4 4 4 4 4 4 4 4 4 4 4 3 3 3 3 3 3 2
2 4 6 5 3 3 4 6 3 3 5 7 8 8 9 9 8 6 5 4 3 3 3 3 3 4 4 4 4 4 4 5 5 5 5 4 4 4 4 4 4 4 4 3 3 3 3 3 3
Wind_Direction
322 336 77 62 57 51 265 256 256 302 314 329 99 118 124 115 140 158 81 123 124 133 139 139 138 133 127 123 120 118 117 118 118 120 122 124 126 128 129 129 127 124 121 119 117 118 119 121 123
327 51 59 62 85 79 270 253 259 271 284 9 56 69 77 65 60 88 102 122 127 132 135 140 139 134 130 127 124 123 122 122 122 123 124 126 127 127 128 128 127 124 122 121 120 121 123 125 127
313 58 81 75 111 181 243 250 245 308 326 34 66 52 61 45 61 86 118 127 125 129 132 143 139 136 133 130 129 128 127 127 127 127 128 128 128 127 128 129 129 126 124 123 123 124 126 128 130
80 51 56 74 187 227 238 269 280 317 357 40 87 67 57 19 48 109 121 123 121 124 128 141 139 137 135 134 134 134 133 132 132 131 131 130 129 129 130 131 131 129 127 127 126 126 128 130 133
60 75 64 41 277 262 258 274 274 338 30 57 95 95 54 20 81 108 116 120 121 123 128 139 139 138 138 138 138 139 138 137 136 136 136 134 133 133 133 134 135 134 133 132 130 130 130 132 136
58 67 82 327 288 286 281 287 338 71 108 84 93 97 65 59 94 108 113 116 124 130 129 133 142 143 142 142 143 143 142 141 141 141 141 140 139 137 137 137 137 138 138 138 137 136 137 138 138
98 94 132 198 292 308 315 346 8 37 69 58 99 101 100 93 98 103 107 111 115 120 122 124 136 142 143 144 147 147 147 146 145 145 146 147 147 146 145 143 144 144 145 146 146 147 147 145 143
116 99 99 260 270 295 323 356 357 33 64 36 68 123 140 137 119 106 103 104 112 114 115 119 124 127 133 143 152 154 154 154 154 155 157 158 158 157 158 153 157 159 160 160 159 159 159 159 156
83 76 122 228 212 278 339 12 358 36 76 54 45 82 123 129 125 115 109 104 110 111 104 106 118 125 129 138 156 156 159 161 160 162 166 159 149 154 162 170 175 176 177 177 174 172 173 173 178
85 120 221 223 206 250 325 11 328 71 69 74 77 91 118 126 128 123 121 122 124 122 114 109 119 124 127 144 137 136 149 153 152 152 158 148 149 165 172 188 193 193 194 193 190 187 185 179 150
132 180 228 247 225 224 317 345 17 108 97 153 141 135 132 126 124 125 127 130 128 129 127 123 127 128 131 135 137 137 134 142 151 158 154 148 148 158 169 166 204 201 199 188 191 178 158 172 177
159 234 221 252 187 65 152 23 46 39 118 126 132 137 135 133 135 139 136 130 119 108 107 117 120 126 129 136 142 146 146 157 166 166 156 152 158 177 186 193 201 183 168 169 174 171 198 204 199
202 266 269 240 348 121 92 70 84 56 90 111 119 122 128 130 126 118 113 119 120 124 124 111 115 126 132 130 142 154 155 165 167 166 173 169 178 198 198 205 209 209 195 189 190 197 217 222 222
228 244 294 306 39 97 107 77 85 100 109 111 117 116 120 127 127 119 115 116 120 111 109 116 120 128 120 121 135 142 147 150 148 163 184 182 186 198 206 210 213 213 206 200 195 202 212 220 224
325 5 349 347 74 140 108 60 79 132 123 118 120 121 119 111 109 116 116 106 95 84 74 84 95 95 105 106 96 93 104 124 139 168 187 191 194 206 209 209 215 221 210 193 189 192 183 198 225
50 57 14 313 44 129 108 123 138 141 136 133 135 136 128 115 105 97 91 85 76 75 66 58 67 62 72 89 95 89 96 101 123 163 201 222 217 211 209 218 223 214 197 195 197 183 188 201 206
35 64 8 320 345 94 108 152 160 152 145 146 148 143 133 124 103 82 80 80 73 73 71 62 59 57 58 76 88 83 84 84 72 47 322 278 258 227 206 230 233 201 200 203 209 188 183 193 210
205 99 360 295 305 87 102 143 154 162 158 161 157 142 136 134 126 96 70 74 72 65 60 56 58 54 51 73 75 71 63 48 43 30 319 339 315 263 215 232 241 203 207 215 207 198 188 182 177
162 147 277 272 253 113 125 140 164 164 158 163 162 151 148 137 113 93 76 70 69 57 51 44 43 35 39 41 44 60 52 13 7 359 2 33 355 332 255 260 243 211 215 218 203 188 180 187 156
162 157 277 320 48 118 113 103 126 160 179 174 170 166 158 139 117 97 76 64 61 58 52 44 41 38 39 36 35 65 52 53 13 343 354 5 9 346 289 245 240 228 216 209 197 177 177 188 174
198 187 204 178 60 64 98 69 102 141 116 140 155 156 156 152 139 113 84 66 64 59 52 50 39 36 34 26 34 40 33 25 14 352 342 342 351 353 349 329 277 239 210 210 207 197 198 198 193
240 223 182 156 115 82 112 143 238 181 172 185 177 162 151 138 119 105 94 76 64 58 53 53 42 35 29 31 42 49 45 18 341 326 317 335 358 8 12 8 6 334 239 221 223 209 216 197 203
204 134 120 117 120 85 38 117 259 165 208 215 194 174 154 142 129 117 102 86 68 59 57 50 46 38 30 36 44 50 43 14 336 338 339 348 2 10 9 11 10 5 345 294 244 220 221 215 210
135 75 60 52 73 74 307 138 238 210 213 207 194 173 156 144 130 118 104 91 72 57 51 46 48 39 31 40 44 47 38 14 1 356 349 351 358 3 3 4 10 6 352 329 279 237 234 238 231
85 89 45 19 28 249 281 161 241 248 224 197 184 168 153 138 128 121 110 97 86 68 56 49 51 41 30 38 38 34 27 17 3 349 347 347 350 351 349 354 0 357 344 341 333 297 265 251 242
140 133 150 174 196 259 341 229 262 303 268 163 158 147 136 130 125 121 113 101 91 79 61 54 53 43 30 34 30 27 26 19 3 357 351 350 343 333 335 348 357 356 353 355 357 350 327 297 265
125 123 148 123 119 78 291 287 313 67 96 128 141 138 138 134 127 118 106 98 92 79 60 50 49 40 30 28 30 29 25 22 15 7 11 6 352 343 351 359 360 1 1 358 1 5 344 333 315
112 138 101 109 135 192 285 263 235 204 184 163 157 153 144 135 126 119 113 106 95 81 65 49 45 42 29 27 28 29 22 17 14 16 16 9 360 359 358 3 8 10 11 12 16 13 11 28 0
80 86 99 104 139 148 213 264 235 202 188 177 169 154 146 139 136 128 121 114 98 73 62 51 38 39 33 28 26 27 21 18 20 25 18 9 4 3 5 8 13 15 16 20 27 30 31 35 21
130 146 143 140 177 161 165 258 303 189 175 161 153 145 140 137 134 129 123 111 90 68 55 45 34 38 34 31 30 27 23 24 27 24 15 12 13 12 13 20 24 23 26 27 33 39 38 39 32